Regional Weather Roundup
Issued by NWS

Home | Current Version | Previous Version | Graphics & Text | Print | Product List | Glossary Off
Versions: 1 2 3 4 5 6 7 8 9 10 11 12 13 14 15 16 17 18 19 20 21 22 23 24 25 26 27 28 29 30 31 32 33 34 35 36 37 38 39 40 41 42 43 44 45 46 47 48 49 50

000
ASUS43 KMPX 260210
RWRMN
WEATHER ROUNDUP FOR MINNESOTA
NATIONAL WEATHER SERVICE TWIN CITIES/CHANHASSEN MN
800 PM CST TUE NOV 25 2014


NOTE: "FAIR" INDICATES FEW OR NO CLOUDS BELOW 12,000 FEET WITH NO
SIGNIFICANT WEATHER AND/OR OBSTRUCTIONS TO VISIBILITY. N/A MEANS
CURRENT SKY AND/OR WEATHER CONDITIONS ARE NOT AVAILABLE.

MNZ060>063-068>070-260300-
   Twin Cities Metro

CITY           SKY/WX    TMP DP  RH WIND       PRES   REMARKS
TWIN CITIES    CLOUDY    24  15  68 SE9       30.01F WCI  14
ST PAUL        CLOUDY    24  17  74 SE7       30.04S WCI  16
CRYSTAL        CLOUDY    25  15  66 S10       30.01R WCI  15
BLAINE         CLOUDY    25  18  74 SE6       30.01  WCI  18
LAKEVILLE      CLOUDY    23  16  74 SE5       30.01S WCI  17
EDEN PRAIRIE   MOCLDY    23  15  71 S5        30.01R WCI  17
SOUTH ST PAUL  CLOUDY    25  17  70 S5        30.03R WCI  19
LAKE ELMO      CLOUDY    25  18  74 S5        30.04R WCI  19
$$
MNZ001>005-007-008-013>017-022>024-027-028-260300-
   Northwest Minnesota

CITY           SKY/WX    TMP DP  RH WIND       PRES   REMARKS
BEMIDJI        CLOUDY    18  12  76 E5        29.96R WCI  11
HALLOCK        LGT SNOW  14  10  85 N13       30.07R WCI   0
ROSEAU         CLOUDY    14   9  79 N6        30.03R WCI   5
WARROAD        CLOUDY    12   9  85 N6        30.03R WCI   3
THIEF RVR FALL CLOUDY    21  16  79 N5        29.99R WCI  15
CROOKSTON      LGT SNOW  21  18  86 NE6       30.01R WCI  14
FOSSTON        CLOUDY    19  12  73 NE3       29.97R
DETROIT LAKES  CLOUDY    23  14  68 SE6       29.94R WCI  16
MOORHEAD       CLOUDY    25  19  80 NE3       29.96R
PARK RAPIDS    MOCLDY    18   9  68 E6        29.94R WCI  10
MAHNOMEN       CLOUDY    23  19  85 N5        29.95R WCI  17
$$
MNZ006-009>011-018-025>026-260300-
   North Central Minnesota

CITY           SKY/WX    TMP DP  RH WIND       PRES   REMARKS
BAUDETTE       LGT SNOW  15  11  83 N6        30.00R FOG     WCI   6
FLAG ISLAND      N/A    N/A N/A N/A VRB8      30.02
INTL FALLS     CLOUDY    13   8  81 CALM      29.99R
WASKISH        CLOUDY    18  16  93 CALM      29.98S
BIG FORK       CLOUDY    19   9  63 CALM      29.98R
LONGVILLE      CLOUDY    16  10  79 CALM      29.97S
GRAND RAPIDS   CLOUDY    18   7  62 SE5       29.98R WCI  11
CRANE LAKE     CLOUDY    10   9  92 CALM      30.02R
ORR            CLOUDY    16   9  73 CALM      29.96R
COOK           CLOUDY    14   9  79 CALM      29.98R
WALKER         CLOUDY    19   9  67 SE3       29.96R
$$
MNZ012-019>021-037-260300-
   Northeast Minnesota

CITY           SKY/WX    TMP DP  RH WIND       PRES   REMARKS
DULUTH         CLOUDY    18   9  68 S5        29.99R WCI  11
ELY            CLOUDY     9   7  92 CALM      29.98R
HIBBING        CLOUDY    19   5  54 SW3       29.98R
EVELETH        CLOUDY    19   7  58 SW3       29.99S
DULUTH HARBOR  CLOUDY    19  12  73 CALM      30.07R
TWO HARBORS    MOCLDY    19  10  68 W3        30.00R
SILVER BAY     MOCLDY    16   9  73 CALM      29.99S
GRAND MARAIS     N/A     21  11  65 NW6       30.03R WCI  13
G MARAIS ARPRT MOCLDY    10   3  72 W5        29.95R WCI   2
$$
MNZ029>031-032-039>041-046>048-054>057-064-260300-
   West Central Minnesota

CITY           SKY/WX    TMP DP  RH WIND       PRES   REMARKS
FERGUS FALLS   CLOUDY    21  12  68 SE8       29.94S WCI  12
WHEATON        CLOUDY    21  18  86 SE13      29.92R WCI   9
MORRIS         CLOUDY    23  16  74 SE13      29.90S WCI  11
ALEXANDRIA     CLOUDY    20  13  74 SE8       29.92S WCI  10
ELBOW LAKE       N/A     22  14  73 SE10      29.90S WCI  11
WADENA         MOCLDY    18   9  68 E5        29.93S WCI  11
GLENWOOD       CLOUDY    21  14  73 SE10      29.93S WCI  10
APPLETON       CLOUDY    27  18  69 E10       29.91S WCI  17
BENSON         CLOUDY    25  18  74 S9G16     29.92S WCI  15
ORTONVILLE     CLOUDY    25  18  74 SE12      29.88F WCI  14
MADISON        CLOUDY    30  25  80 E9        29.89F WCI  22
WILLMAR        CLOUDY    27  16  63 SE12      29.95S WCI  16
$$
MNZ033>034-036-042>043-049>051-058-059-260300-
   Central Minnesota

CITY           SKY/WX    TMP DP  RH WIND       PRES   REMARKS
ST CLOUD       CLOUDY    21  12  68 E6        30.00R WCI  13
SAUK CENTRE    FAIR      19  13  76 SE8       29.94F WCI   9
PAYNESVILLE    CLOUDY    20  11  68 E8        29.96S WCI  10
AITKIN         PTCLDY    16  10  79 CALM      29.97S
PINE RIVER     CLOUDY    18   9  68 CALM      30.00R
BRAINERD       MOCLDY    16   8  71 CALM      29.98R
STAPLES        MOCLDY    16   7  67 SE5       29.95S WCI   9
LONG PRAIRIE   CLOUDY    18  10  73 E3        29.94F
LITTLE FALLS   CLOUDY    19  10  68 SE6       29.98S WCI  11
LITCHFIELD     CLOUDY    25  16  68 SE9       29.97S WCI  15
BUFFALO        MOCLDY    21  13  72 CALM      30.01R
MAPLE LAKE     CLOUDY    23  16  73 E5        30.00S WCI  17
$$
MNZ037-044-045-052-053-260300-
   East Central Minnesota

CITY           SKY/WX    TMP DP  RH WIND       PRES   REMARKS
PRINCETON      CLOUDY    21  14  73 CALM      30.01R
MORA           CLOUDY    19  12  73 CALM      30.03R
CAMBRIDGE      CLOUDY    23  12  63 CALM      30.00R
RUSH CITY      CLOUDY    19  14  79 CALM      30.03R
MOOSE LAKE     CLOUDY    19  12  73 CALM      30.00R
HINCKLEY       CLOUDY    21  14  73 CALM      30.02S
CLOQUET        CLOUDY    18  10  73 CALM      30.00R
MCGREGOR       CLOUDY    19  12  73 E3        30.00R
$$
MNZ071>073-080-081-089-090-097-098-260300-
   Southwest Minnesota

CITY           SKY/WX    TMP DP  RH WIND       PRES   REMARKS
MONTEVIDEO     CLOUDY    27  19  74 S10       29.92F WCI  17
GRANITE FALLS  CLOUDY    28  19  68 E12       29.93S WCI  18
CANBY          CLOUDY    29  24  82 SE6       29.89F WCI  23
MARSHALL       CLOUDY    30  18  59 SE12      29.89F WCI  21
REDWOOD FALLS  CLOUDY    27  17  66 SE12      29.94S WCI  17
OLIVIA         CLOUDY    27  18  69 SE9       29.95R WCI  17
PIPESTONE      CLOUDY    30  23  74 S15G21    29.83F WCI  19
WINDOM           N/A     27  16  63 SE9       29.92S WCI  17
WORTHINGTON    CLOUDY    30  18  59 S12       29.89F WCI  21
JACKSON        MOCLDY    30  16  55 SE9       29.93S WCI  22
TRACY          CLOUDY    31  20  65 SE8       29.89F WCI  23
SLAYTON        CLOUDY    28  21  74 SE9       29.89S WCI  20
$$
MNZ065>067-074>077-082>085-091>093-260300-
   South Central Minnesota

CITY           SKY/WX    TMP DP  RH WIND       PRES   REMARKS
MANKATO        PTCLDY    23  12  63 SE12      29.99S WCI  12
NEW ULM        MOCLDY    25  18  74 SE9       29.96S WCI  15
ST JAMES       MOCLDY    27  18  69 SE9       29.97S WCI  17
FAIRMONT       MOCLDY    27  12  54 SE14      29.95F WCI  15
GLENCOE        CLOUDY    24  19  80 E7        29.98S WCI  16
FARIBAULT      CLOUDY    25  16  68 SE7       30.01S WCI  17
OWATONNA       CLOUDY    25  16  68 SE12      30.00R WCI  14
WASECA         PTCLDY    21  14  73 SE9       30.02R WCI  11
ALBERT LEA     PTCLDY    21  18  86 SE10      30.00S WCI  10
$$
MNZ078>079-086>088-094>096-260300-
   Southeast Minnesota

CITY           SKY/WX    TMP DP  RH WIND       PRES   REMARKS
ROCHESTER      CLOUDY    18  13  80 S9        30.04S WCI   7
RED WING       CLOUDY    25  16  68 SE7       30.04S WCI  17
STANTON        CLOUDY    26  16  66 S8        30.01S WCI  17
DODGE CENTER   CLOUDY    21  18  86 SE14      30.00F WCI   8
WINONA         CLOUDY    23  16  74 CALM      30.11R
AUSTIN         CLOUDY    21  16  79 SE8       30.02F WCI  12
PRESTON        PTCLDY    14  10  85 S5        30.06S WCI   6
$$
ABBREVIATIONS USED IN REMARKS
   TC - TEMPERATURES IN CELSIUS
  WCI - WIND CHILL INDEX
   HX - HEAT INDEX
  VSB - VISIBILITY
$$


USA.gov is the U.S. government's official web portal to all federal, state and local government web resources and services.